period_start,C,m1,H,J0,J1,J2,J3,J4,J5,JA,JB,JC,JD,JJ,JK,JN,#
2014-07-04 00:00:15,0.00,0.17,0.00,23.70,28.02,30.42,9.65,37.76,1021.50,2037.99,3469.00,3266.99,3553.97,500.14,498.02,18.49,0000 0000 0000 0000 000000
2014-07-04 00:05:16,0.00,0.17,0.00,23.72,28.02,30.43,9.68,37.92,1021.50,2037.99,3469.00,3266.99,3553.97,500.39,498.18,18.54,0000 0000 0000 0000 000000
2014-07-04 00:10:17,0.00,0.17,0.00,23.72,28.02,30.42,9.53,37.67,1021.50,2037.99,3469.00,3266.99,3553.97,499.73,497.48,18.58,0000 0000 0000 0000 000000
2014-07-04 00:15:18,0.00,0.17,0.00,23.76,28.02,30.42,9.62,37.73,1021.50,2037.99,3469.00,3266.99,3553.96,499.99,497.92,18.62,0000 0000 0000 0000 000000
2014-07-04 00:20:19,-0.00,0.17,0.00,23.79,28.02,30.41,9.55,37.54,1021.50,2037.98,3469.00,3266.99,3553.96,499.55,497.47,18.66,0000 0000 0000 0000 000000
2014-07-04 00:25:20,0.00,0.17,0.00,23.80,28.02,30.40,9.51,37.82,1021.50,2037.99,3469.00,3266.99,3553.94,499.58,497.34,18.70,0000 0000 0000 0000 000000
2014-07-04 00:30:21,0.00,0.17,0.00,23.80,28.03,30.41,9.64,37.66,1021.50,2037.99,3469.00,3266.98,3553.88,499.97,497.70,18.74,0000 0000 0000 0000 000000
2014-07-04 00:35:23,0.00,0.17,0.00,23.84,28.05,30.41,9.61,37.73,1021.50,2037.99,3469.00,3266.98,3553.81,499.89,497.57,18.79,0000 0000 0000 0000 000000
2014-07-04 00:40:24,0.00,0.17,0.00,23.86,28.05,30.42,9.59,37.29,1021.50,2037.99,3468.99,3266.97,3553.68,500.03,497.56,18.83,0000 0000 0000 0000 000000
2014-07-04 00:45:25,0.01,0.17,0.00,23.87,28.05,30.42,9.60,37.52,1021.50,2037.99,3468.98,3266.94,3553.44,500.29,497.91,18.87,0000 0000 0000 0000 000000
2014-07-04 00:50:26,0.00,0.17,0.00,23.88,28.06,30.44,9.60,37.32,1021.50,2037.98,3468.97,3266.88,3553.11,500.36,497.92,18.91,0000 0000 0000 0000 000000
2014-07-04 00:55:27,0.01,0.17,0.00,23.93,28.07,30.44,9.60,37.62,1021.48,2037.97,3468.77,3266.65,3553.06,500.50,497.95,18.95,0000 0000 0000 0000 000000
2014-07-04 01:00:28,0.01,0.17,0.00,23.94,28.07,30.45,9.56,37.42,1021.47,2037.91,3468.15,3266.10,3553.01,499.78,497.21,19.00,0000 0000 0000 0000 000000
2014-07-04 01:05:29,0.00,0.17,0.00,23.95,28.09,30.45,9.54,37.06,1021.39,2037.92,3468.14,3266.05,3553.00,500.05,497.47,19.04,0000 0000 0000 0000 000000
2014-07-04 01:10:30,-0.00,0.17,0.00,23.95,28.10,30.47,9.53,37.50,1021.19,2037.89,3468.04,3266.03,3553.00,499.67,497.04,19.08,0000 0000 0000 0000 000000
2014-07-04 01:15:31,-0.01,0.17,0.00,23.99,28.10,30.48,9.55,37.27,1021.09,2037.83,3468.01,3266.00,3553.00,499.84,497.08,19.12,0000 0000 0000 0000 000000
2014-07-04 01:20:33,-0.03,0.17,0.00,24.00,28.12,30.49,9.60,37.26,1021.06,2037.55,3467.99,3266.00,3552.94,499.90,497.02,19.16,0000 0000 0000 0000 000000
2014-07-04 01:25:34,-0.02,0.17,0.00,24.02,28.12,30.51,9.60,37.15,1021.05,2037.22,3467.97,3265.99,3552.56,499.85,496.86,19.20,0000 0000 0000 0000 000000
2014-07-04 01:30:35,0.00,0.17,0.00,24.06,28.15,30.52,9.53,36.94,1021.02,2037.18,3467.95,3265.97,3552.19,499.81,496.86,19.25,0000 0000 0000 0000 000000
2014-07-04 01:35:36,0.02,0.17,0.00,24.07,28.15,30.53,9.56,37.43,1021.01,2037.15,3467.57,3265.92,3552.06,500.36,497.42,19.29,0000 0000 0000 0000 000000
2014-07-04 01:40:36,0.00,0.17,0.00,24.09,28.17,30.54,9.51,37.59,1021.02,2037.09,3467.10,3265.68,3552.01,500.32,497.39,19.33,0000 0000 0000 0000 000000
2014-07-04 01:45:37,0.00,0.17,0.00,24.09,28.17,30.56,9.67,37.76,1021.03,2037.05,3467.05,3265.43,3552.00,500.35,497.33,19.37,0000 0000 0000 0000 000000
2014-07-04 01:50:38,0.00,0.17,0.00,24.11,28.18,30.56,9.54,37.58,1021.02,2037.02,3467.01,3265.08,3552.00,500.06,496.88,19.41,0000 0000 0000 0000 000000
2014-07-04 01:55:39,-0.00,0.17,0.00,24.13,28.20,30.57,9.53,37.62,1021.03,2037.01,3467.00,3265.04,3552.00,499.54,496.49,19.46,0000 0000 0000 0000 000000
2014-07-04 02:00:40,0.00,0.17,0.00,24.12,28.20,30.59,9.53,37.47,1021.02,2037.00,3466.99,3265.00,3551.96,500.17,497.20,19.50,0000 0000 0000 0000 000000
2014-07-04 02:05:41,0.00,0.17,0.00,24.13,28.22,30.60,9.54,37.66,1021.01,2037.00,3466.92,3265.00,3551.75,499.96,496.79,19.54,0000 0000 0000 0000 000000
2014-07-04 02:10:42,0.01,0.17,0.00,24.17,28.23,30.61,9.54,37.53,1021.02,2037.00,3466.76,3264.99,3551.27,499.83,496.73,19.58,0000 0000 0000 0000 000000
2014-07-04 02:15:43,0.01,0.17,0.00,24.17,28.25,30.63,9.60,37.38,1021.03,2037.00,3466.43,3264.97,3551.07,500.13,497.07,19.62,0000 0000 0000 0000 000000
2014-07-04 02:20:44,0.00,0.17,0.00,24.18,28.26,30.64,9.53,37.29,1021.04,2037.00,3466.10,3264.92,3551.04,500.14,497.00,19.66,0000 0000 0000 0000 000000
2014-07-04 02:25:46,0.01,0.17,0.00,24.19,28.27,30.66,9.45,37.53,1021.03,2036.99,3466.01,3264.59,3551.00,499.55,496.31,19.71,0000 0000 0000 0000 000000
2014-07-04 02:30:47,0.01,0.17,0.00,24.20,28.28,30.66,9.57,37.35,1021.02,2036.99,3466.00,3264.37,3550.98,500.04,496.79,19.75,0000 0000 0000 0000 000000
2014-07-04 02:35:48,0.01,0.18,0.00,24.22,28.30,30.68,9.60,37.48,1021.03,2036.99,3466.00,3264.10,3550.90,500.23,497.01,19.79,0000 0000 0000 0000 000000
2014-07-04 02:40:49,0.01,0.18,0.00,24.20,28.31,30.70,9.51,37.18,1021.03,2036.98,3465.95,3264.01,3550.45,499.55,496.47,19.83,0000 0000 0000 0000 000000
2014-07-04 02:45:50,-0.00,0.18,0.00,24.21,28.32,30.72,9.59,37.20,1021.02,2036.95,3465.81,3264.00,3550.18,499.82,496.64,19.87,0000 0000 0000 0000 000000
2014-07-04 02:50:51,-0.01,0.18,0.00,24.22,28.33,30.73,9.52,37.13,1021.02,2036.85,3465.37,3264.00,3550.03,499.90,496.82,19.92,0000 0000 0000 0000 000000
2014-07-04 02:55:52,-0.00,0.18,0.00,24.22,28.35,30.73,9.57,37.24,1021.03,2036.77,3465.13,3263.99,3550.00,499.81,496.77,19.96,0000 0000 0000 0000 000000
2014-07-04 03:00:53,-0.01,0.18,0.00,24.23,28.35,30.75,9.57,37.19,1021.03,2036.62,3465.04,3263.98,3550.00,500.02,497.03,20.00,0000 0000 0000 0000 000000
2014-07-04 03:05:54,-0.02,0.17,0.00,24.24,28.37,30.76,9.53,37.11,1021.03,2036.34,3465.00,3263.93,3549.99,500.16,497.00,20.04,0000 0000 0000 0000 000000
2014-07-04 03:10:55,-0.01,0.17,0.00,24.27,28.37,30.77,9.57,37.10,1021.02,2036.30,3465.00,3263.88,3549.99,499.95,496.81,20.08,0000 0000 0000 0000 000000
2014-07-04 03:15:56,0.01,0.17,0.00,24.31,28.39,30.77,9.45,37.16,1021.01,2036.10,3465.00,3263.35,3549.90,499.79,496.68,20.13,0000 0000 0000 0000 000000
2014-07-04 03:20:58,0.01,0.17,0.00,24.36,28.40,30.78,9.52,37.12,1021.01,2036.04,3465.00,3263.09,3549.53,499.98,496.55,20.17,0000 0000 0000 0000 000000
2014-07-04 03:25:59,0.00,0.17,0.00,24.43,28.41,30.78,9.59,37.20,1021.03,2036.01,3464.97,3263.02,3549.21,500.10,496.50,20.21,0000 0000 0000 0000 000000
2014-07-04 03:31:00,0.00,0.17,0.00,24.50,28.42,30.79,9.48,37.13,1021.03,2036.02,3464.92,3263.01,3549.07,499.51,496.01,20.25,0000 0000 0000 0000 000000
2014-07-04 03:36:01,0.00,0.17,0.00,24.55,28.45,30.80,9.53,37.25,1021.02,2036.01,3464.68,3263.00,3549.02,500.41,496.61,20.29,0000 0000 0000 0000 000000
2014-07-04 03:41:02,0.00,0.17,0.00,24.60,28.46,30.82,9.56,37.06,1021.03,2036.00,3464.13,3263.00,3549.00,500.45,496.75,20.33,0000 0000 0000 0000 000000
2014-07-04 03:46:03,0.00,0.18,0.00,24.69,28.49,30.84,9.59,37.14,1021.02,2036.00,3464.01,3262.98,3548.95,500.03,495.93,20.38,0000 0000 0000 0000 000000
2014-07-04 03:51:05,0.01,0.18,0.00,24.77,28.51,30.87,9.50,37.10,1021.01,2036.00,3464.00,3262.82,3548.56,500.13,495.94,20.42,0000 0000 0000 0000 000000
2014-07-04 03:56:06,0.02,0.18,0.00,24.83,28.53,30.90,9.48,37.21,1021.01,2035.98,3463.98,3262.42,3548.11,499.80,495.72,20.46,0000 0000 0000 0000 000000
2014-07-04 04:01:07,0.01,0.18,0.00,24.86,28.56,30.92,9.55,37.14,1021.01,2035.93,3463.79,3262.02,3548.00,500.34,495.97,20.50,0000 0000 0000 0000 000000
2014-07-04 04:06:08,-0.02,0.18,0.00,24.85,28.59,30.96,9.47,37.13,1021.01,2035.67,3463.27,3262.00,3547.99,499.65,495.32,20.54,0000 0000 0000 0000 000000
2014-07-04 04:11:09,-0.04,0.17,0.00,24.86,28.62,30.99,9.48,37.13,1021.01,2035.22,3463.01,3261.96,3547.80,500.00,495.80,20.59,0000 0000 0000 0000 000000
2014-07-04 04:16:10,0.02,0.17,0.00,24.89,28.65,31.03,9.50,37.06,1021.01,2035.02,3462.99,3261.47,3547.12,500.03,495.65,20.63,0000 0000 0000 0000 000000
2014-07-04 04:21:11,0.00,0.18,0.00,24.91,28.67,31.06,9.50,37.00,1021.01,2035.00,3462.97,3261.10,3547.01,499.96,495.73,20.67,0000 0000 0000 0000 000000
2014-07-04 04:26:12,0.00,0.18,0.00,24.96,28.71,31.08,9.54,37.88,1021.00,2035.00,3462.77,3261.01,3547.00,499.92,495.58,20.71,0000 0000 0000 0000 000000
2014-07-04 04:31:13,0.01,0.18,0.00,25.02,28.73,31.11,9.53,38.11,1020.83,2035.00,3462.11,3261.00,3546.95,499.69,495.01,20.75,0000 0000 0000 0000 000000
2014-07-04 04:36:14,0.01,0.18,0.00,25.06,28.76,31.13,9.52,37.73,1020.66,2034.98,3462.01,3260.96,3546.38,499.80,495.00,20.80,0000 0000 0000 0000 000000
2014-07-04 04:41:15,0.01,0.18,0.00,25.09,28.79,31.17,9.54,37.97,1020.64,2034.97,3462.00,3260.66,3546.06,499.70,494.99,20.84,0000 0000 0000 0000 000000
2014-07-04 04:46:16,-0.05,0.18,0.00,25.12,28.82,31.21,9.50,37.54,1020.61,2034.56,3461.87,3260.06,3545.99,499.77,494.87,20.88,0000 0000 0000 0000 000000
2014-07-04 04:51:17,-0.01,0.17,0.00,25.19,28.86,31.24,9.48,37.45,1020.61,2034.10,3461.33,3260.00,3545.78,500.26,495.23,20.92,0000 0000 0000 0000 000000
2014-07-04 04:56:18,0.01,0.17,0.00,25.22,28.89,31.27,9.57,37.54,1020.77,2034.03,3461.03,3259.98,3545.13,499.90,494.93,20.96,0000 0000 0000 0000 000000
2014-07-04 05:01:19,0.01,0.18,0.00,25.25,28.92,31.30,9.45,37.46,1020.91,2034.00,3461.00,3259.61,3545.01,499.97,495.10,21.00,0000 0000 0000 0000 000000
2014-07-04 05:06:21,0.01,0.18,0.00,25.30,28.96,31.34,9.47,37.19,1020.92,2034.00,3460.98,3259.06,3544.99,500.03,495.05,21.05,0000 0000 0000 0000 000000
2014-07-04 05:11:22,0.02,0.18,0.00,25.35,28.99,31.37,9.44,37.15,1020.98,2033.98,3460.50,3259.00,3544.55,500.16,495.14,21.09,0000 0000 0000 0000 000000
2014-07-04 05:16:23,0.01,0.18,0.00,25.40,29.03,31.41,9.53,37.22,1020.93,2033.92,3460.04,3258.96,3544.03,500.38,495.03,21.13,0000 0000 0000 0000 000000
2014-07-04 05:21:24,-0.04,0.18,0.00,25.42,29.06,31.44,9.59,37.31,1020.77,2033.49,3460.00,3258.44,3544.00,500.66,495.41,21.17,0000 0000 0000 0000 000000
2014-07-04 05:26:25,-0.02,0.18,0.00,25.43,29.10,31.48,9.59,37.06,1020.83,2033.15,3459.98,3258.06,3543.92,500.44,494.84,21.21,0000 0000 0000 0000 000000
2014-07-04 05:31:26,0.01,0.17,0.00,25.49,29.13,31.51,9.44,37.13,1020.80,2033.03,3459.67,3258.00,3543.33,500.15,494.72,21.26,0000 0000 0000 0000 000000
2014-07-04 05:36:28,0.00,0.18,0.00,25.51,29.16,31.55,9.48,37.08,1020.75,2033.00,3459.15,3257.98,3543.02,500.13,494.69,21.30,0000 0000 0000 0000 000000
2014-07-04 05:41:29,0.00,0.18,0.00,25.49,29.20,31.58,9.50,37.04,1020.86,2033.00,3459.01,3257.87,3543.00,500.11,494.62,21.34,0000 0000 0000 0000 000000
2014-07-04 05:46:31,0.02,0.18,0.00,25.47,29.23,31.62,9.53,37.00,1020.94,2033.00,3458.99,3257.19,3542.90,500.28,494.96,21.38,0000 0000 0000 0000 000000
2014-07-04 05:51:31,0.01,0.18,0.00,25.46,29.26,31.65,9.51,36.91,1020.83,2032.97,3458.94,3257.02,3542.36,500.05,494.68,21.42,0000 0000 0000 0000 000000
2014-07-04 05:56:32,0.00,0.18,0.00,25.46,29.29,31.69,9.51,36.92,1020.69,2032.82,3458.33,3256.99,3542.01,500.07,494.67,21.46,0000 0000 0000 0000 000000
2014-07-04 06:01:34,-0.04,0.18,0.00,25.47,29.31,31.71,9.56,36.87,1020.73,2032.51,3458.02,3256.96,3541.99,500.64,495.10,21.51,0000 0000 0000 0000 000000
2014-07-04 06:06:35,-0.02,0.18,0.00,25.45,29.34,31.73,9.56,36.99,1020.83,2032.21,3458.00,3256.64,3541.90,500.37,494.98,21.55,0000 0000 0000 0000 000000
2014-07-04 06:11:36,0.02,0.18,0.00,25.47,29.36,31.76,9.49,36.94,1020.67,2032.02,3457.81,3256.04,3541.20,499.97,494.58,21.59,0000 0000 0000 0000 000000
2014-07-04 06:16:37,0.01,0.18,0.00,25.51,29.39,31.78,9.45,36.89,1020.56,2032.00,3457.11,3255.99,3541.00,499.56,494.03,21.63,0000 0000 0000 0000 000000
2014-07-04 06:21:38,0.00,0.18,0.00,25.55,29.41,31.79,9.51,36.93,1020.55,2032.00,3457.01,3255.98,3540.99,500.33,494.51,21.67,0000 0000 0000 0000 000000
2014-07-04 06:26:39,0.01,0.18,0.00,25.58,29.43,31.81,9.49,36.94,1020.53,2032.00,3457.00,3255.80,3540.85,499.81,494.14,21.72,0000 0000 0000 0000 000000
2014-07-04 06:31:41,0.02,0.18,0.00,25.62,29.46,31.83,9.44,37.13,1020.53,2031.99,3457.00,3255.30,3540.27,499.59,493.93,21.76,0000 0000 0000 0000 000000
2014-07-04 06:36:42,0.00,0.18,0.00,25.64,29.48,31.84,9.45,37.02,1020.52,2031.97,3456.86,3255.03,3540.03,499.64,493.84,21.80,0000 0000 0000 0000 000000
2014-07-04 06:41:43,-0.04,0.18,0.00,25.70,29.51,31.87,9.48,37.06,1020.51,2031.57,3456.20,3255.00,3539.98,500.09,493.97,21.84,0000 0000 0000 0000 000000
2014-07-04 06:46:44,-0.02,0.18,0.00,25.74,29.53,31.90,9.46,36.90,1020.52,2031.20,3456.02,3254.91,3539.76,500.21,494.25,21.88,0000 0000 0000 0000 000000
2014-07-04 06:51:45,0.01,0.18,0.00,25.74,29.56,31.92,9.49,37.03,1020.52,2031.02,3456.00,3254.33,3539.14,499.85,493.74,21.92,0000 0000 0000 0000 000000
2014-07-04 06:56:46,0.00,0.18,0.00,25.76,29.58,31.95,9.43,36.99,1020.52,2031.00,3455.96,3254.03,3539.00,499.79,493.75,21.97,0000 0000 0000 0000 000000
2014-07-04 07:01:47,0.01,0.18,0.00,25.79,29.61,31.97,9.47,37.00,1020.52,2031.00,3455.58,3254.00,3538.97,499.97,493.90,22.01,0000 0000 0000 0000 000000
2014-07-04 07:06:48,0.01,0.18,0.00,25.85,29.63,31.99,9.48,36.77,1020.52,2030.98,3455.08,3253.97,3538.68,499.89,493.72,22.05,0000 0000 0000 0000 000000
2014-07-04 07:11:49,0.01,0.18,0.00,25.87,29.66,32.01,9.53,36.74,1020.52,2030.96,3455.02,3253.80,3538.17,500.43,494.24,22.09,0000 0000 0000 0000 000000
2014-07-04 07:16:50,-0.01,0.18,0.00,25.89,29.69,32.04,9.50,36.83,1020.52,2030.80,3455.00,3253.27,3538.00,500.37,494.12,22.13,0000 0000 0000 0000 000000
2014-07-04 07:21:51,-0.03,0.18,0.00,25.88,29.71,32.07,9.52,37.50,1020.52,2030.45,3454.96,3253.01,3538.00,500.04,493.76,22.18,0000 0000 0000 0000 000000
2014-07-04 07:26:52,-0.03,0.18,0.00,25.92,29.73,32.09,9.52,38.38,1020.52,2030.12,3454.47,3253.00,3537.92,500.09,493.76,22.22,0000 0000 0000 0000 000000
2014-07-04 07:31:53,0.01,0.18,0.00,25.95,29.76,32.13,9.48,38.23,1020.52,2030.06,3454.06,3252.97,3537.45,500.21,493.90,22.26,0000 0000 0000 0000 000000
2014-07-04 07:36:54,0.01,0.18,0.00,25.98,29.77,32.15,9.49,38.13,1020.51,2030.01,3454.01,3252.80,3537.09,499.74,493.36,22.30,0000 0000 0000 0000 000000
2014-07-04 07:41:55,0.01,0.18,0.00,26.01,29.80,32.17,9.46,38.27,1020.52,2030.00,3454.00,3252.22,3537.00,500.03,493.44,22.34,0000 0000 0000 0000 000000
2014-07-04 07:46:56,0.00,0.18,0.00,25.98,29.82,32.20,9.42,38.02,1020.52,2030.00,3453.95,3252.04,3537.00,499.66,493.23,22.39,0000 0000 0000 0000 000000
2014-07-04 07:51:57,0.00,0.18,0.00,26.00,29.85,32.22,9.48,37.73,1020.52,2029.99,3453.93,3252.01,3536.97,500.29,493.90,22.43,0000 0000 0000 0000 000000
2014-07-04 07:56:58,0.01,0.18,0.00,26.03,29.87,32.24,9.53,37.73,1020.52,2029.99,3453.60,3252.00,3536.71,500.13,493.42,22.47,0000 0000 0000 0000 000000
2014-07-04 08:01:59,0.01,0.18,0.00,26.06,29.90,32.26,9.49,37.71,1020.52,2029.98,3453.09,3251.99,3536.16,499.95,493.49,22.51,0000 0000 0000 0000 000000
2014-07-04 08:07:00,-0.02,0.18,0.00,26.07,29.91,32.29,9.40,37.10,1020.48,2029.73,3453.01,3251.79,3536.01,499.87,493.35,22.55,0000 0000 0000 0000 000000
2014-07-04 08:12:01,-0.01,0.18,0.00,26.09,29.94,32.31,9.45,37.17,1020.17,2029.38,3453.00,3251.24,3536.00,499.79,493.14,22.59,0000 0000 0000 0000 000000
2014-07-04 08:17:02,-0.01,0.18,0.00,26.08,29.96,32.33,9.44,37.30,1020.15,2029.15,3452.94,3251.03,3535.92,499.78,493.11,22.64,0000 0000 0000 0000 000000
2014-07-04 08:22:03,0.01,0.18,0.00,26.09,29.99,32.35,9.50,37.17,1020.12,2029.03,3452.46,3251.00,3535.32,500.19,493.53,22.68,0000 0000 0000 0000 000000
2014-07-04 08:27:04,0.01,0.18,0.00,26.11,30.01,32.38,9.54,37.70,1020.06,2029.00,3452.07,3250.99,3535.08,500.27,493.50,22.72,0000 0000 0000 0000 000000
2014-07-04 08:32:05,0.00,0.18,0.00,26.14,30.03,32.39,9.43,37.57,1020.04,2029.00,3452.00,3250.86,3535.00,499.99,492.92,22.76,0000 0000 0000 0000 000000
2014-07-04 08:37:06,0.00,0.18,0.00,26.17,30.05,32.42,9.52,37.17,1020.04,2029.00,3452.00,3250.60,3534.99,500.18,493.10,22.80,0000 0000 0000 0000 000000
2014-07-04 08:42:07,0.02,0.18,0.00,26.17,30.07,32.44,9.49,37.15,1020.04,2029.00,3451.93,3250.07,3534.75,500.33,493.37,22.85,0000 0000 0000 0000 000000
2014-07-04 08:47:08,0.02,0.18,0.00,26.18,30.10,32.46,9.42,37.16,1020.04,2028.98,3451.45,3250.00,3534.16,500.22,493.28,22.89,0000 0000 0000 0000 000000
2014-07-04 08:52:09,0.00,0.18,0.00,26.19,30.12,32.47,9.50,37.68,1020.03,2028.96,3451.07,3249.99,3534.01,500.05,493.11,22.93,0000 0000 0000 0000 000000
2014-07-04 08:57:10,-0.01,0.18,0.00,26.21,30.13,32.50,9.44,37.69,1020.03,2028.86,3451.00,3249.95,3534.00,500.17,493.23,22.97,0000 0000 0000 0000 000000
2014-07-04 09:02:11,-0.02,0.18,0.00,26.25,30.15,32.52,9.43,37.41,1020.03,2028.61,3451.00,3249.72,3533.98,500.04,492.95,23.01,0000 0000 0000 0000 000000
2014-07-04 09:07:12,0.00,0.18,0.00,26.27,30.17,32.54,9.34,37.24,1020.04,2028.36,3450.93,3249.27,3533.87,500.12,493.16,23.06,0000 0000 0000 0000 000000
2014-07-04 09:12:13,-0.01,0.18,0.00,26.25,30.20,32.55,9.38,37.51,1020.04,2028.13,3450.49,3249.03,3533.27,499.77,492.62,23.10,0000 0000 0000 0000 000000
2014-07-04 09:17:15,0.00,0.18,0.00,26.25,30.21,32.58,9.44,37.42,1020.04,2028.06,3450.14,3249.00,3533.07,499.51,492.48,23.14,0000 0000 0000 0000 000000
2014-07-04 09:22:16,0.00,0.18,0.00,26.27,30.22,32.59,9.41,37.75,1020.03,2028.02,3450.02,3249.00,3533.01,500.05,493.02,23.18,0000 0000 0000 0000 000000
2014-07-04 09:27:17,0.00,0.18,0.00,26.27,30.25,32.61,9.39,38.38,1020.03,2028.00,3450.00,3248.98,3533.00,500.25,492.93,23.22,0000 0000 0000 0000 000000
2014-07-04 09:32:18,0.00,0.18,0.00,26.28,30.26,32.63,9.53,38.33,1020.04,2028.00,3449.97,3248.91,3532.98,499.97,492.83,23.27,0000 0000 0000 0000 000000
2014-07-04 09:37:19,0.03,0.18,0.00,26.28,30.27,32.64,9.48,38.02,1020.04,2028.00,3449.70,3248.39,3532.68,500.57,493.43,23.31,0000 0000 0000 0000 000000
2014-07-04 09:42:20,0.01,0.18,0.00,26.27,30.30,32.65,9.42,37.55,1020.05,2028.00,3449.35,3248.11,3532.26,499.78,492.70,23.35,0000 0000 0000 0000 000000
2014-07-04 09:47:21,0.01,0.18,0.00,26.28,30.31,32.67,9.50,37.91,1020.05,2028.00,3449.13,3248.05,3532.05,499.78,492.76,23.39,0000 0000 0000 0000 000000
2014-07-04 09:52:22,0.00,0.18,0.00,26.31,30.32,32.69,9.52,38.08,1020.04,2027.99,3449.02,3248.00,3532.01,499.84,492.78,23.43,0000 0000 0000 0000 000000
2014-07-04 09:57:23,-0.00,0.18,0.00,26.32,30.34,32.69,9.52,37.68,1020.04,2027.98,3449.00,3248.00,3532.00,499.80,492.59,23.47,0000 0000 0000 0000 000000
2014-07-04 10:02:24,-0.01,0.18,0.00,26.32,30.35,32.71,9.45,36.86,1020.04,2027.87,3448.99,3247.97,3531.95,500.07,492.89,23.52,0000 0000 0000 0000 000000
2014-07-04 10:07:26,-0.01,0.18,0.00,26.33,30.37,32.72,9.47,37.10,1020.04,2027.66,3448.92,3247.84,3531.64,500.35,493.03,23.56,0000 0000 0000 0000 000000
2014-07-04 10:12:26,-0.02,0.18,0.00,26.33,30.38,32.74,9.47,37.13,1019.98,2027.29,3448.57,3247.47,3531.19,500.26,493.13,23.60,0000 0000 0000 0000 000000
2014-07-04 10:17:27,0.01,0.18,0.00,26.34,30.40,32.75,9.50,37.18,1019.66,2027.27,3448.37,3247.32,3531.08,500.18,492.57,23.64,0000 0000 0000 0000 000000
2014-07-04 10:22:29,-0.01,0.18,0.00,26.35,30.41,32.77,9.38,37.04,1019.57,2027.04,3448.01,3247.01,3531.00,499.88,492.25,23.68,0000 0000 0000 0000 000000
2014-07-04 10:27:30,-0.00,0.18,0.00,26.36,30.42,32.78,9.46,37.35,1019.82,2027.03,3448.00,3247.00,3531.00,499.93,492.49,23.73,0000 0000 0000 0000 000000
2014-07-04 10:32:31,0.01,0.18,0.00,26.39,30.44,32.80,9.51,37.20,1020.01,2027.00,3447.81,3246.87,3530.84,500.10,492.77,23.77,0000 0000 0000 0000 000000
2014-07-04 10:37:32,0.05,0.18,0.00,26.39,30.45,32.80,9.42,37.22,1019.97,2027.01,3446.95,3246.09,3530.04,499.54,492.35,23.81,0000 0000 0000 0000 000000
2014-07-04 10:42:32,0.00,0.18,0.00,26.38,30.46,32.81,9.42,36.98,1019.83,2027.00,3446.91,3246.10,3530.00,499.96,492.72,23.85,0000 0000 0000 0000 000000
2014-07-04 10:47:34,0.01,0.18,0.00,26.38,30.47,32.83,9.41,36.95,1020.02,2027.00,3446.60,3246.02,3530.00,499.54,492.27,23.89,0000 0000 0000 0000 000000
2014-07-04 10:52:35,0.01,0.18,0.00,26.40,30.48,32.84,9.47,37.84,1019.78,2027.00,3446.16,3246.00,3529.98,500.15,492.63,23.94,0000 0000 0000 0000 000000
2014-07-04 10:57:36,0.00,0.18,0.00,26.40,30.50,32.85,9.53,38.23,1019.57,2026.99,3446.01,3246.00,3529.95,500.29,492.93,23.98,0000 0000 0000 0000 000000
2014-07-04 11:02:38,0.00,0.18,0.00,26.41,30.50,32.86,9.51,37.78,1019.55,2026.99,3446.00,3245.99,3529.75,500.25,492.60,24.02,0000 0000 0000 0000 000000
2014-07-04 11:07:39,0.00,0.18,0.00,26.41,30.50,32.87,9.44,38.23,1019.55,2026.99,3445.99,3245.97,3529.57,499.81,492.33,24.06,0000 0000 0000 0000 000000
2014-07-04 11:12:40,0.01,0.18,0.00,26.40,30.52,32.88,9.47,38.23,1019.53,2026.99,3445.99,3245.92,3529.24,500.23,492.66,24.10,0000 0000 0000 0000 000000
2014-07-04 11:17:41,0.01,0.18,0.00,26.42,30.52,32.89,9.50,38.73,1019.14,2026.97,3445.94,3245.73,3529.06,500.33,492.52,24.14,0000 0000 0000 0000 000000
2014-07-04 11:22:42,0.00,0.18,0.00,26.42,30.52,32.89,9.46,38.77,1019.06,2026.97,3445.81,3245.44,3529.01,500.17,492.25,24.19,0000 0000 0000 0000 000000
2014-07-04 11:27:43,0.01,0.18,0.00,26.42,30.54,32.91,9.52,38.98,1019.06,2026.95,3445.34,3245.13,3529.00,500.29,492.45,24.23,0000 0000 0000 0000 000000
2014-07-04 11:32:45,0.00,0.19,0.00,26.42,30.55,32.91,9.45,38.98,1019.06,2026.90,3445.06,3245.02,3529.00,500.05,492.24,24.27,0000 0000 0000 0000 000000
2014-07-04 11:37:46,-0.00,0.18,0.00,26.39,30.55,32.92,9.50,39.13,1019.06,2026.86,3445.04,3245.01,3528.98,499.88,492.24,24.31,0000 0000 0000 0000 000000
2014-07-04 11:42:47,-0.00,0.18,0.00,26.40,30.55,32.92,9.47,38.91,1019.06,2026.86,3445.02,3245.01,3528.98,499.69,491.92,24.35,0000 0000 0000 0000 000000
2014-07-04 11:47:47,-0.03,0.18,0.00,26.42,30.57,32.94,9.49,38.93,1019.07,2026.65,3445.00,3245.00,3528.88,499.82,492.11,24.40,0000 0000 0000 0000 000000
2014-07-04 11:52:49,-0.01,0.18,0.00,26.42,30.57,32.93,9.49,38.93,1019.06,2026.51,3445.00,3245.00,3528.80,499.68,491.91,24.44,0000 0000 0000 0000 000000
2014-07-04 11:57:49,-0.02,0.18,0.00,26.41,30.57,32.94,9.48,38.85,1019.06,2026.36,3444.98,3245.00,3528.55,499.59,491.82,24.48,0000 0000 0000 0000 000000
2014-07-04 12:02:50,-0.00,0.18,0.00,26.39,30.57,32.94,9.54,38.67,1019.07,2026.22,3444.95,3244.99,3528.19,500.55,492.77,24.52,0000 0000 0000 0000 000000
2014-07-04 12:07:51,-0.00,0.18,0.00,26.38,30.58,32.95,9.52,38.73,1019.06,2026.12,3444.86,3244.96,3528.05,500.07,492.34,24.56,0000 0000 0000 0000 000000
2014-07-04 12:12:52,0.00,0.18,0.00,26.42,30.60,32.96,9.47,38.64,1019.07,2026.13,3444.80,3244.96,3528.03,500.09,492.37,24.60,0000 0000 0000 0000 000000
2014-07-04 12:17:53,0.00,0.18,0.00,26.43,30.60,32.95,9.43,38.67,1019.07,2026.06,3444.39,3244.80,3528.00,499.86,491.81,24.65,0000 0000 0000 0000 000000
2014-07-04 12:22:54,0.00,0.18,0.00,26.43,30.60,32.96,9.41,38.79,1019.11,2026.02,3444.13,3244.61,3528.00,499.88,492.04,24.69,0000 0000 0000 0000 000000
2014-07-04 12:27:55,-0.00,0.18,0.00,26.44,30.60,32.97,9.49,38.72,1019.10,2026.01,3444.05,3244.42,3528.00,500.14,492.34,24.73,0000 0000 0000 0000 000000
2014-07-04 12:32:56,0.00,0.18,0.00,26.42,30.60,32.97,9.47,38.67,1019.08,2026.01,3444.01,3244.26,3528.00,499.96,492.19,24.77,0000 0000 0000 0000 000000
2014-07-04 12:37:57,0.00,0.18,0.00,26.41,30.60,32.97,9.44,38.71,1019.09,2026.03,3444.01,3244.20,3527.99,500.00,492.40,24.81,0000 0000 0000 0000 000000
2014-07-04 12:42:58,0.00,0.18,0.00,26.44,30.60,32.97,9.45,38.62,1019.10,2026.02,3444.00,3244.09,3527.99,500.11,492.34,24.86,0000 0000 0000 0000 000000
2014-07-04 12:47:59,-0.00,0.18,0.00,26.44,30.60,32.97,9.46,38.63,1019.07,2026.00,3444.00,3244.04,3527.94,499.98,492.21,24.90,0000 0000 0000 0000 000000
2014-07-04 12:53:00,0.00,0.18,0.00,26.44,30.61,32.97,9.46,38.75,1019.06,2026.00,3443.98,3244.01,3527.85,499.83,491.89,24.94,0000 0000 0000 0000 000000
2014-07-04 12:58:01,0.00,0.18,0.00,26.40,30.62,32.98,9.41,38.76,1019.06,2026.01,3443.99,3244.01,3527.91,499.73,492.09,24.98,0000 0000 0000 0000 000000